Time,TemperatureF,DewpointF,PressureIn,WindDirection,WindDirectionDegrees,WindSpeedMPH,WindSpeedGustMPH,Humidity,HourlyPrecipIn,Conditions,Clouds,dailyrainin,SoftwareType,DateUTC
2013-03-12 00:00:00,27.2,22.4,29.78,West,270,7.0,-999.0,82,0.00,,,0.01,Wunderground v.1.15,2013-03-12 05:00:00,
2013-03-12 00:05:00,27.2,22.4,29.78,West,270,7.0,-999.0,82,0.00,,,0.01,Wunderground v.1.15,2013-03-12 05:05:00,
2013-03-12 00:10:00,27.0,22.8,29.78,West,270,6.0,-999.0,84,0.00,,,0.01,Wunderground v.1.15,2013-03-12 05:10:00,
2013-03-12 00:15:00,26.7,22.8,29.78,West,270,7.0,-999.0,85,0.00,,,0.01,Wunderground v.1.15,2013-03-12 05:15:00,
2013-03-12 00:20:00,26.7,23.4,29.78,West,270,5.0,-999.0,87,0.00,,,0.01,Wunderground v.1.15,2013-03-12 05:20:00,
2013-03-12 12:25:00,26.1,17.6,29.88,WNW,293,15.0,-999.0,70,0.00,,,0.01,Wunderground v.1.15,2013-03-12 17:25:00,
2013-03-12 12:30:00,26.4,17.3,29.88,West,270,14.0,-999.0,68,0.00,,,0.01,Wunderground v.1.15,2013-03-12 17:30:00,
2013-03-12 12:35:00,26.7,16.5,29.88,WNW,293,12.0,-999.0,65,0.00,,,0.01,Wunderground v.1.15,2013-03-12 17:35:00,
2013-03-12 12:40:00,26.9,16.3,29.88,WNW,293,12.0,-999.0,64,0.00,,,0.01,Wunderground v.1.15,2013-03-12 17:40:00,
2013-03-12 12:45:00,27.2,16.3,29.89,West,270,12.0,-999.0,63,0.00,,,0.01,Wunderground v.1.15,2013-03-12 17:45:00,
2013-03-12 12:50:00,27.6,16.6,29.89,West,270,10.0,-999.0,63,0.00,,,0.01,Wunderground v.1.15,2013-03-12 17:50:00,
2013-03-12 12:55:00,27.3,16.4,29.89,West,270,12.0,-999.0,63,0.00,,,0.01,Wunderground v.1.15,2013-03-12 17:55:00,
2013-03-12 13:00:00,27.5,16.2,29.89,West,270,13.0,-999.0,62,0.00,,,0.01,Wunderground v.1.15,2013-03-12 18:00:00,
2013-03-12 13:05:00,27.3,15.6,29.89,WNW,293,13.0,-999.0,61,0.00,,,0.01,Wunderground v.1.15,2013-03-12 18:05:00,
2013-03-12 13:10:00,27.3,16.0,29.89,West,270,13.0,-999.0,62,0.00,,,0.01,Wunderground v.1.15,2013-03-12 18:10:00,
2013-03-12 13:15:00,27.8,16.5,29.89,West,270,9.0,-999.0,62,0.00,,,0.01,Wunderground v.1.15,2013-03-12 18:15:00,
2013-03-12 13:20:00,27.9,16.2,29.89,West,270,12.0,-999.0,61,0.00,,,0.01,Wunderground v.1.15,2013-03-12 18:20:00,
2013-03-12 13:25:00,27.9,15.4,29.89,West,270,10.0,-999.0,59,0.00,,,0.01,Wunderground v.1.15,2013-03-12 18:25:00,
2013-03-12 13:30:00,27.9,15.4,29.89,West,270,11.0,-999.0,59,0.00,,,0.01,Wunderground v.1.15,2013-03-12 18:30:00,
2013-03-12 13:35:00,28.4,15.9,29.89,West,270,13.0,-999.0,59,0.00,,,0.01,Wunderground v.1.15,2013-03-12 18:35:00,
2013-03-12 13:40:00,27.8,15.3,29.89,WNW,293,15.0,-999.0,59,0.00,,,0.01,Wunderground v.1.15,2013-03-12 18:40:00,
2013-03-12 13:45:00,28.2,15.3,29.89,WNW,293,11.0,-999.0,58,0.00,,,0.01,Wunderground v.1.15,2013-03-12 18:45:00,
2013-03-12 13:50:00,28.7,15.8,29.89,WNW,293,8.0,-999.0,58,0.00,,,0.01,Wunderground v.1.15,2013-03-12 18:50:00,
2013-03-12 13:55:00,28.2,15.3,29.89,WNW,293,13.0,-999.0,58,0.00,,,0.01,Wunderground v.1.15,2013-03-12 18:55:00,
2013-03-12 14:00:00,28.5,16.0,29.89,WNW,293,11.0,-999.0,59,0.00,,,0.01,Wunderground v.1.15,2013-03-12 19:00:00,
2013-03-12 14:05:00,28.4,15.1,29.89,West,270,13.0,-999.0,57,0.00,,,0.01,Wunderground v.1.15,2013-03-12 19:05:00,
2013-03-12 14:10:00,28.4,15.5,29.89,WNW,293,11.0,-999.0,58,0.00,,,0.01,Wunderground v.1.15,2013-03-12 19:10:00,
2013-03-12 14:15:00,28.5,15.2,29.89,West,270,13.0,-999.0,57,0.00,,,0.01,Wunderground v.1.15,2013-03-12 19:15:00,
2013-03-12 14:20:00,28.4,14.7,29.89,WNW,293,13.0,-999.0,56,0.00,,,0.01,Wunderground v.1.15,2013-03-12 19:20:00,
2013-03-12 14:25:00,28.4,14.7,29.89,West,270,13.0,-999.0,56,0.00,,,0.01,Wunderground v.1.15,2013-03-12 19:25:00,
2013-03-12 14:30:00,28.2,14.5,29.89,West,270,14.0,-999.0,56,0.00,,,0.01,Wunderground v.1.15,2013-03-12 19:30:00,
2013-03-12 14:35:00,28.5,14.4,29.89,West,270,15.0,-999.0,55,0.00,,,0.01,Wunderground v.1.15,2013-03-12 19:35:00,
2013-03-12 14:40:00,28.7,14.1,29.89,West,270,11.0,-999.0,54,0.00,,,0.01,Wunderground v.1.15,2013-03-12 19:40:00,
2013-03-12 14:45:00,28.7,13.7,29.90,WNW,293,12.0,-999.0,53,0.00,,,0.01,Wunderground v.1.15,2013-03-12 19:45:00,
2013-03-12 14:50:00,28.5,13.9,29.90,WNW,293,14.0,-999.0,54,0.00,,,0.01,Wunderground v.1.15,2013-03-12 19:50:00,
2013-03-12 14:55:00,28.4,13.4,29.90,West,270,15.0,-999.0,53,0.00,,,0.01,Wunderground v.1.15,2013-03-12 19:55:00,
2013-03-12 15:00:00,28.4,13.9,29.90,WNW,293,13.0,-999.0,54,0.00,,,0.01,Wunderground v.1.15,2013-03-12 20:00:00,
2013-03-12 15:05:00,28.4,13.4,29.90,WNW,293,15.0,-999.0,53,0.00,,,0.01,Wunderground v.1.15,2013-03-12 20:05:00,
2013-03-12 15:10:00,28.2,12.4,29.90,WNW,293,16.0,-999.0,51,0.00,,,0.01,Wunderground v.1.15,2013-03-12 20:10:00,
2013-03-12 15:15:00,28.5,12.6,29.90,WNW,293,13.0,-999.0,51,0.00,,,0.01,Wunderground v.1.15,2013-03-12 20:15:00,
2013-03-12 15:20:00,28.5,12.2,29.90,West,270,14.0,-999.0,50,0.00,,,0.01,Wunderground v.1.15,2013-03-12 20:20:00,
2013-03-12 15:25:00,28.5,12.6,29.90,WNW,293,14.0,-999.0,51,0.00,,,0.01,Wunderground v.1.15,2013-03-12 20:25:00,
2013-03-12 15:30:00,28.5,12.2,29.91,WNW,293,15.0,-999.0,50,0.00,,,0.01,Wunderground v.1.15,2013-03-12 20:30:00,
2013-03-12 15:35:00,28.4,12.1,29.91,West,270,17.0,-999.0,50,0.00,,,0.01,Wunderground v.1.15,2013-03-12 20:35:00,
2013-03-12 15:40:00,28.5,12.6,29.91,West,270,15.0,-999.0,51,0.00,,,0.01,Wunderground v.1.15,2013-03-12 20:40:00,
2013-03-12 15:45:00,28.7,12.8,29.91,West,270,13.0,-999.0,51,0.00,,,0.01,Wunderground v.1.15,2013-03-12 20:45:00,
2013-03-12 15:50:00,28.4,11.6,29.91,WNW,293,16.0,-999.0,49,0.00,,,0.01,Wunderground v.1.15,2013-03-12 20:50:00,
2013-03-12 15:55:00,28.2,11.5,29.91,WNW,293,17.0,-999.0,49,0.00,,,0.01,Wunderground v.1.15,2013-03-12 20:55:00,
2013-03-12 16:00:00,28.5,12.2,29.91,West,270,13.0,-999.0,50,0.00,,,0.01,Wunderground v.1.15,2013-03-12 21:00:00,
2013-03-12 16:05:00,28.8,12.9,29.91,West,270,10.0,-999.0,51,0.00,,,0.01,Wunderground v.1.15,2013-03-12 21:05:00,
2013-03-12 16:10:00,29.1,13.2,29.91,WNW,293,11.0,-999.0,51,0.00,,,0.01,Wunderground v.1.15,2013-03-12 21:10:00,
2013-03-12 16:15:00,28.7,12.4,29.92,WNW,293,13.0,-999.0,50,0.00,,,0.01,Wunderground v.1.15,2013-03-12 21:15:00,
2013-03-12 16:20:00,29.0,12.2,29.92,West,270,13.0,-999.0,49,0.00,,,0.01,Wunderground v.1.15,2013-03-12 21:20:00,
2013-03-12 16:25:00,28.4,11.6,29.92,WNW,293,17.0,-999.0,49,0.00,,,0.01,Wunderground v.1.15,2013-03-12 21:25:00,
2013-03-12 16:30:00,28.7,12.4,29.92,WNW,293,13.0,-999.0,50,0.00,,,0.01,Wunderground v.1.15,2013-03-12 21:30:00,
2013-03-12 16:35:00,28.8,12.0,29.92,WNW,293,13.0,-999.0,49,0.00,,,0.01,Wunderground v.1.15,2013-03-12 21:35:00,
2013-03-12 16:40:00,29.1,12.3,29.92,WNW,293,12.0,-999.0,49,0.00,,,0.01,Wunderground v.1.15,2013-03-12 21:40:00,
2013-03-12 16:45:00,29.0,11.7,29.92,WNW,293,13.0,-999.0,48,0.00,,,0.01,Wunderground v.1.15,2013-03-12 21:45:00,
2013-03-12 16:50:00,28.7,11.5,29.92,WNW,293,15.0,-999.0,48,0.00,,,0.01,Wunderground v.1.15,2013-03-12 21:50:00,
2013-03-12 16:55:00,29.0,12.2,29.92,WNW,293,12.0,-999.0,49,0.00,,,0.01,Wunderground v.1.15,2013-03-12 21:55:00,
2013-03-12 17:00:00,29.0,12.7,29.93,WNW,293,13.0,-999.0,50,0.00,,,0.01,Wunderground v.1.15,2013-03-12 22:00:00,
2013-03-12 17:05:00,28.8,12.5,29.93,WNW,293,12.0,-999.0,50,0.00,,,0.01,Wunderground v.1.15,2013-03-12 22:05:00,
2013-03-12 17:10:00,28.7,12.4,29.93,WNW,293,12.0,-999.0,50,0.00,,,0.01,Wunderground v.1.15,2013-03-12 22:10:00,
2013-03-12 17:15:00,28.5,11.7,29.94,WNW,293,14.0,-999.0,49,0.00,,,0.01,Wunderground v.1.15,2013-03-12 22:15:00,
2013-03-12 17:20:00,28.7,12.4,29.94,WNW,293,11.0,-999.0,50,0.00,,,0.01,Wunderground v.1.15,2013-03-12 22:20:00,
2013-03-12 17:25:00,28.5,10.8,29.94,WNW,293,14.0,-999.0,47,0.00,,,0.01,Wunderground v.1.15,2013-03-12 22:25:00,
2013-03-12 17:30:00,28.5,9.3,29.94,WNW,293,17.0,-999.0,44,0.00,,,0.01,Wunderground v.1.15,2013-03-12 22:30:00,
2013-03-12 17:35:00,28.8,10.1,29.94,WNW,293,14.0,-999.0,45,0.00,,,0.01,Wunderground v.1.15,2013-03-12 22:35:00,
2013-03-12 17:40:00,28.7,11.5,29.94,WNW,293,14.0,-999.0,48,0.00,,,0.01,Wunderground v.1.15,2013-03-12 22:40:00,
2013-03-12 17:45:00,28.5,10.8,29.94,WNW,293,14.0,-999.0,47,0.00,,,0.01,Wunderground v.1.15,2013-03-12 22:45:00,
2013-03-12 17:50:00,28.7,11.9,29.94,WNW,293,10.0,-999.0,49,0.00,,,0.01,Wunderground v.1.15,2013-03-12 22:50:00,
2013-03-12 17:55:00,28.4,12.1,29.94,WNW,293,12.0,-999.0,50,0.00,,,0.01,Wunderground v.1.15,2013-03-12 22:55:00,
2013-03-12 18:00:00,28.5,12.6,29.95,WNW,293,11.0,-999.0,51,0.00,,,0.01,Wunderground v.1.15,2013-03-12 23:00:00,
2013-03-12 18:05:00,28.4,10.7,29.95,WNW,293,15.0,-999.0,47,0.00,,,0.01,Wunderground v.1.15,2013-03-12 23:05:00,
2013-03-12 18:10:00,28.5,10.3,29.95,WNW,293,13.0,-999.0,46,0.00,,,0.01,Wunderground v.1.15,2013-03-12 23:10:00,
2013-03-12 18:15:00,28.5,9.8,29.96,NW,315,12.0,-999.0,45,0.00,,,0.01,Wunderground v.1.15,2013-03-12 23:15:00,
2013-03-12 18:20:00,28.4,9.7,29.96,NW,315,12.0,-999.0,45,0.00,,,0.01,Wunderground v.1.15,2013-03-12 23:20:00,
2013-03-12 18:25:00,28.2,9.5,29.96,NW,315,11.0,-999.0,45,0.00,,,0.01,Wunderground v.1.15,2013-03-12 23:25:00,
2013-03-12 18:30:00,27.9,9.8,29.97,NW,315,10.0,-999.0,46,0.00,,,0.01,Wunderground v.1.15,2013-03-12 23:30:00,
2013-03-12 18:35:00,27.9,9.3,29.97,NW,315,9.0,-999.0,45,0.00,,,0.01,Wunderground v.1.15,2013-03-12 23:35:00,
2013-03-12 18:40:00,27.8,8.7,29.97,NW,315,9.0,-999.0,44,0.00,,,0.01,Wunderground v.1.15,2013-03-12 23:40:00,
2013-03-12 18:45:00,27.8,9.7,29.97,NW,315,8.0,-999.0,46,0.00,,,0.01,Wunderground v.1.15,2013-03-12 23:45:00,
2013-03-12 18:50:00,27.8,9.7,29.97,WNW,293,7.0,-999.0,46,0.00,,,0.01,Wunderground v.1.15,2013-03-12 23:50:00,
2013-03-12 18:55:00,27.8,9.2,29.97,NW,315,7.0,-999.0,45,0.00,,,0.01,Wunderground v.1.15,2013-03-12 23:55:00,
2013-03-12 19:00:00,27.8,8.2,29.98,NW,315,10.0,-999.0,43,0.00,,,0.01,Wunderground v.1.15,2013-03-13 00:00:00,
2013-03-12 19:05:00,27.8,8.7,29.98,NW,315,9.0,-999.0,44,0.00,,,0.01,Wunderground v.1.15,2013-03-13 00:05:00,
2013-03-12 19:10:00,27.8,8.7,29.98,WNW,293,9.0,-999.0,44,0.00,,,0.01,Wunderground v.1.15,2013-03-13 00:10:00,
2013-03-12 19:15:00,27.8,8.7,29.99,NW,315,10.0,-999.0,44,0.00,,,0.01,Wunderground v.1.15,2013-03-13 00:15:00,
2013-03-12 19:20:00,27.6,8.5,29.99,NW,315,9.0,-999.0,44,0.00,,,0.01,Wunderground v.1.15,2013-03-13 00:20:00,
2013-03-12 19:25:00,27.6,10.0,29.99,NW,315,9.0,-999.0,47,0.00,,,0.01,Wunderground v.1.15,2013-03-13 00:25:00,
2013-03-12 19:30:00,27.6,10.4,29.99,NW,315,13.0,-999.0,48,0.00,,,0.01,Wunderground v.1.15,2013-03-13 00:30:00,
2013-03-12 19:35:00,27.5,10.8,29.99,NW,315,14.0,-999.0,49,0.00,,,0.01,Wunderground v.1.15,2013-03-13 00:35:00,
2013-03-12 19:40:00,27.5,11.7,29.99,NW,315,12.0,-999.0,51,0.00,,,0.01,Wunderground v.1.15,2013-03-13 00:40:00,
2013-03-12 19:45:00,27.2,12.3,30.00,NNW,338,12.0,-999.0,53,0.00,,,0.01,Wunderground v.1.15,2013-03-13 00:45:00,
2013-03-12 19:50:00,27.2,12.7,30.00,NW,315,10.0,-999.0,54,0.00,,,0.01,Wunderground v.1.15,2013-03-13 00:50:00,
2013-03-12 19:55:00,27.0,13.0,30.00,NNW,338,10.0,-999.0,55,0.00,,,0.01,Wunderground v.1.15,2013-03-13 00:55:00,
2013-03-12 20:00:00,26.7,13.9,30.02,NNW,338,12.0,-999.0,58,0.00,,,0.01,Wunderground v.1.15,2013-03-13 01:00:00,
2013-03-12 20:05:00,26.0,14.8,30.02,NNW,338,16.0,-999.0,62,0.00,,,0.01,Wunderground v.1.15,2013-03-13 01:05:00,
2013-03-12 20:10:00,25.7,15.2,30.02,NNW,338,14.0,-999.0,64,0.00,,,0.01,Wunderground v.1.15,2013-03-13 01:10:00,
2013-03-12 20:15:00,25.6,15.1,30.03,NNW,338,12.0,-999.0,64,0.00,,,0.01,Wunderground v.1.15,2013-03-13 01:15:00,
2013-03-12 20:20:00,25.4,14.9,30.03,NW,315,10.0,-999.0,64,0.00,,,0.01,Wunderground v.1.15,2013-03-13 01:20:00,
2013-03-12 20:25:00,25.3,14.5,30.03,NW,315,12.0,-999.0,63,0.00,,,0.01,Wunderground v.1.15,2013-03-13 01:25:00,
2013-03-12 20:30:00,25.1,14.6,30.04,NW,315,11.0,-999.0,64,0.00,,,0.01,Wunderground v.1.15,2013-03-13 01:30:00,
2013-03-12 20:35:00,24.8,14.3,30.04,NW,315,13.0,-999.0,64,0.00,,,0.01,Wunderground v.1.15,2013-03-13 01:35:00,
2013-03-12 20:40:00,24.7,14.6,30.04,NNW,338,12.0,-999.0,65,0.00,,,0.01,Wunderground v.1.15,2013-03-13 01:40:00,
2013-03-12 20:45:00,24.5,14.8,30.05,NW,315,12.0,-999.0,66,0.00,,,0.01,Wunderground v.1.15,2013-03-13 01:45:00,
2013-03-12 20:50:00,24.4,15.0,30.05,NNW,338,10.0,-999.0,67,0.00,,,0.01,Wunderground v.1.15,2013-03-13 01:50:00,
2013-03-12 20:55:00,24.1,15.7,30.05,NNW,338,9.0,-999.0,70,0.00,,,0.01,Wunderground v.1.15,2013-03-13 01:55:00,
2013-03-12 21:00:00,23.6,17.1,30.06,NNW,338,11.0,-999.0,76,0.00,,,0.01,Wunderground v.1.15,2013-03-13 02:00:00,
2013-03-12 21:05:00,23.0,17.7,30.06,NNW,338,12.0,-999.0,80,0.00,,,0.01,Wunderground v.1.15,2013-03-13 02:05:00,
2013-03-12 21:10:00,22.9,18.5,30.06,NNW,338,8.0,-999.0,83,0.00,,,0.01,Wunderground v.1.15,2013-03-13 02:10:00,
2013-03-12 21:15:00,22.4,18.0,30.07,NNW,338,12.0,-999.0,83,0.00,,,0.01,Wunderground v.1.15,2013-03-13 02:15:00,
2013-03-12 21:20:00,22.4,17.2,30.07,NNW,338,10.0,-999.0,80,0.00,,,0.01,Wunderground v.1.15,2013-03-13 02:20:00,
2013-03-12 21:25:00,22.5,15.1,30.07,NNW,338,12.0,-999.0,73,0.00,,,0.01,Wunderground v.1.15,2013-03-13 02:25:00,
2013-03-12 21:30:00,22.7,14.4,30.07,NNW,338,11.0,-999.0,70,0.00,,,0.01,Wunderground v.1.15,2013-03-13 02:30:00,
2013-03-12 21:35:00,22.7,14.1,30.07,NNW,338,12.0,-999.0,69,0.00,,,0.01,Wunderground v.1.15,2013-03-13 02:35:00,
2013-03-12 21:40:00,22.9,13.9,30.07,NNW,338,10.0,-999.0,68,0.00,,,0.01,Wunderground v.1.15,2013-03-13 02:40:00,
2013-03-12 21:45:00,22.9,13.9,30.08,NNW,338,9.0,-999.0,68,0.00,,,0.01,Wunderground v.1.15,2013-03-13 02:45:00,
2013-03-12 21:50:00,22.7,14.4,30.08,NW,315,8.0,-999.0,70,0.00,,,0.01,Wunderground v.1.15,2013-03-13 02:50:00,
2013-03-12 21:55:00,22.5,14.2,30.08,NW,315,10.0,-999.0,70,0.00,,,0.01,Wunderground v.1.15,2013-03-13 02:55:00,
2013-03-12 22:00:00,22.5,13.5,30.09,NW,315,11.0,-999.0,68,0.00,,,0.01,Wunderground v.1.15,2013-03-13 03:00:00,
2013-03-12 22:05:00,22.5,13.5,30.09,NW,315,10.0,-999.0,68,0.00,,,0.01,Wunderground v.1.15,2013-03-13 03:05:00,
2013-03-12 22:10:00,22.5,13.5,30.09,NW,315,9.0,-999.0,68,0.00,,,0.01,Wunderground v.1.15,2013-03-13 03:10:00,
2013-03-12 22:15:00,22.4,13.1,30.10,NW,315,10.0,-999.0,67,0.00,,,0.01,Wunderground v.1.15,2013-03-13 03:15:00,
2013-03-12 22:20:00,22.2,12.9,30.10,NW,315,8.0,-999.0,67,0.00,,,0.01,Wunderground v.1.15,2013-03-13 03:20:00,
2013-03-12 22:25:00,22.2,13.2,30.10,NW,315,8.0,-999.0,68,0.00,,,0.01,Wunderground v.1.15,2013-03-13 03:25:00,
2013-03-12 22:30:00,22.1,13.5,30.10,NW,315,7.0,-999.0,69,0.00,,,0.01,Wunderground v.1.15,2013-03-13 03:30:00,
2013-03-12 22:35:00,21.9,13.3,30.10,NW,315,7.0,-999.0,69,0.00,,,0.01,Wunderground v.1.15,2013-03-13 03:35:00,
2013-03-12 22:40:00,21.9,13.6,30.10,NW,315,8.0,-999.0,70,0.00,,,0.01,Wunderground v.1.15,2013-03-13 03:40:00,
2013-03-12 22:45:00,21.8,13.8,30.10,NW,315,8.0,-999.0,71,0.00,,,0.01,Wunderground v.1.15,2013-03-13 03:45:00,
2013-03-12 22:50:00,21.8,14.2,30.10,NW,315,8.0,-999.0,72,0.00,,,0.01,Wunderground v.1.15,2013-03-13 03:50:00,
2013-03-12 22:55:00,21.6,14.3,30.10,WNW,293,8.0,-999.0,73,0.00,,,0.01,Wunderground v.1.15,2013-03-13 03:55:00,
2013-03-12 23:00:00,21.4,14.4,30.11,NW,315,8.0,-999.0,74,0.00,,,0.01,Wunderground v.1.15,2013-03-13 04:00:00,
2013-03-12 23:05:00,21.4,14.7,30.11,NW,315,6.0,-999.0,75,0.00,,,0.01,Wunderground v.1.15,2013-03-13 04:05:00,
2013-03-12 23:10:00,21.4,14.7,30.11,WNW,293,6.0,-999.0,75,0.00,,,0.01,Wunderground v.1.15,2013-03-13 04:10:00,
2013-03-12 23:15:00,21.3,14.9,30.11,NW,315,8.0,-999.0,76,0.00,,,0.01,Wunderground v.1.15,2013-03-13 04:15:00,
2013-03-12 23:20:00,21.3,14.9,30.11,NW,315,6.0,-999.0,76,0.00,,,0.01,Wunderground v.1.15,2013-03-13 04:20:00,
2013-03-12 23:25:00,21.1,15.0,30.11,NW,315,7.0,-999.0,77,0.00,,,0.01,Wunderground v.1.15,2013-03-13 04:25:00,
2013-03-12 23:30:00,21.1,15.3,30.12,NW,315,5.0,-999.0,78,0.00,,,0.01,Wunderground v.1.15,2013-03-13 04:30:00,
2013-03-12 23:35:00,21.1,15.3,30.12,WNW,293,5.0,-999.0,78,0.00,,,0.01,Wunderground v.1.15,2013-03-13 04:35:00,
2013-03-12 23:40:00,21.1,15.3,30.12,NW,315,4.0,-999.0,78,0.00,,,0.01,Wunderground v.1.15,2013-03-13 04:40:00,
2013-03-12 23:45:00,21.1,15.0,30.12,NW,315,7.0,-999.0,77,0.00,,,0.01,Wunderground v.1.15,2013-03-13 04:45:00,
2013-03-12 23:50:00,21.3,14.9,30.12,NW,315,8.0,-999.0,76,0.00,,,0.01,Wunderground v.1.15,2013-03-13 04:50:00,
2013-03-12 23:55:00,21.3,14.9,30.12,NW,315,6.0,-999.0,76,0.00,,,0.01,Wunderground v.1.15,2013-03-13 04:55:00,